Year,Month,Day,Hour,Minute,Value (Times are PST for windgust in km/hr)
2016,02,29,00,00,4.80
2016,02,29,00,01,3.20
2016,02,29,00,02,3.20
2016,02,29,00,03,4.80
2016,02,29,00,04,6.40
2016,02,29,00,05,3.20
2016,02,29,00,06,3.20
2016,02,29,00,07,4.80
2016,02,29,00,08,6.40
2016,02,29,00,09,9.60
2016,02,29,00,10,9.60
2016,02,29,00,11,9.60
2016,02,29,00,12,8.10
2016,02,29,00,13,8.10
2016,02,29,00,14,8.10
2016,02,29,00,15,9.60
2016,02,29,00,16,6.40
2016,02,29,00,17,6.40
2016,02,29,00,18,9.60
2016,02,29,00,19,11.30
2016,02,29,00,20,8.10
2016,02,29,00,21,9.60
2016,02,29,00,22,12.90
2016,02,29,00,23,16.10
2016,02,29,00,24,14.50
2016,02,29,00,25,14.50
2016,02,29,00,26,14.50
2016,02,29,00,27,17.70
2016,02,29,00,28,11.30
2016,02,29,00,29,16.10
2016,02,29,00,30,16.10
2016,02,29,00,31,12.90
2016,02,29,00,32,16.10
2016,02,29,00,33,16.10
2016,02,29,00,34,16.10
2016,02,29,00,35,16.10
2016,02,29,00,36,17.70
2016,02,29,00,37,17.70
2016,02,29,00,38,14.50
2016,02,29,00,39,17.70
2016,02,29,00,40,17.70
2016,02,29,00,41,14.50
2016,02,29,00,42,17.70
2016,02,29,00,43,16.10
2016,02,29,00,44,9.60
2016,02,29,00,45,11.30
2016,02,29,00,46,9.60
2016,02,29,00,47,6.40
2016,02,29,00,48,6.40
2016,02,29,00,49,6.40
2016,02,29,00,50,9.60
2016,02,29,00,51,9.60
2016,02,29,00,52,9.60
2016,02,29,00,53,14.50
2016,02,29,00,54,11.30
2016,02,29,00,55,14.50
2016,02,29,00,56,14.50
2016,02,29,00,57,11.30
2016,02,29,00,58,14.50
2016,02,29,00,59,14.50
2016,02,29,01,00,9.60
2016,02,29,01,01,11.30
2016,02,29,01,02,9.60
2016,02,29,01,03,14.50
2016,02,29,01,04,8.10
2016,02,29,01,05,4.80
2016,02,29,01,06,9.60
2016,02,29,01,07,9.60
2016,02,29,01,08,11.30
2016,02,29,01,09,11.30
2016,02,29,01,10,11.30
2016,02,29,01,11,14.50
2016,02,29,01,12,9.60
2016,02,29,01,13,9.60
2016,02,29,01,14,11.30
2016,02,29,01,15,11.30
2016,02,29,01,16,11.30
2016,02,29,01,17,11.30
2016,02,29,01,18,11.30
2016,02,29,01,19,11.30
2016,02,29,01,20,11.30
2016,02,29,01,21,14.50
2016,02,29,01,22,14.50
2016,02,29,01,23,16.10
2016,02,29,01,24,9.60
2016,02,29,01,25,9.60
2016,02,29,01,26,8.10
2016,02,29,01,27,11.30
2016,02,29,01,28,14.50
2016,02,29,01,29,11.30
2016,02,29,01,30,12.90
2016,02,29,01,31,11.30
2016,02,29,01,32,12.90
2016,02,29,01,33,12.90
2016,02,29,01,34,9.60
2016,02,29,01,35,11.30
2016,02,29,01,36,12.90
2016,02,29,01,37,11.30
2016,02,29,01,38,12.90
2016,02,29,01,39,12.90
2016,02,29,01,40,11.30
2016,02,29,01,41,12.90
2016,02,29,01,42,9.60
2016,02,29,01,43,9.60
2016,02,29,01,44,8.10
2016,02,29,01,45,9.60
2016,02,29,01,46,9.60
2016,02,29,01,47,12.90
2016,02,29,01,48,9.60
2016,02,29,01,49,9.60
2016,02,29,01,50,12.90
2016,02,29,01,51,8.10
2016,02,29,01,52,16.10
2016,02,29,01,53,14.50
2016,02,29,01,54,12.90
2016,02,29,01,55,8.10
2016,02,29,01,56,11.30
2016,02,29,01,57,14.50
2016,02,29,01,58,11.30
2016,02,29,01,59,8.10
2016,02,29,02,00,12.90
2016,02,29,02,01,11.30
2016,02,29,02,02,8.10
2016,02,29,02,03,9.60
2016,02,29,02,04,8.10
2016,02,29,02,05,6.40
2016,02,29,02,06,8.10
2016,02,29,02,07,14.50
2016,02,29,02,08,11.30
2016,02,29,02,09,16.10
2016,02,29,02,10,16.10
2016,02,29,02,11,16.10
2016,02,29,02,12,11.30
2016,02,29,02,13,14.50
2016,02,29,02,14,11.30
2016,02,29,02,15,11.30
2016,02,29,02,16,6.40
2016,02,29,02,17,11.30
2016,02,29,02,18,8.10
2016,02,29,02,19,9.60
2016,02,29,02,20,9.60
2016,02,29,02,21,6.40
2016,02,29,02,22,6.40
2016,02,29,02,23,8.10
2016,02,29,02,24,8.10
2016,02,29,02,25,9.60
2016,02,29,02,26,8.10
2016,02,29,02,27,8.10
2016,02,29,02,28,9.60
2016,02,29,02,29,9.60
2016,02,29,02,30,11.30
2016,02,29,02,31,9.60
2016,02,29,02,32,9.60
2016,02,29,02,33,9.60
2016,02,29,02,34,8.10
2016,02,29,02,35,9.60
2016,02,29,02,36,8.10
2016,02,29,02,37,8.10
2016,02,29,02,38,6.40
2016,02,29,02,39,6.40
2016,02,29,02,40,6.40
2016,02,29,02,41,6.40
2016,02,29,02,42,6.40
2016,02,29,02,43,4.80
2016,02,29,02,44,4.80
2016,02,29,02,45,3.20
2016,02,29,02,46,4.80
2016,02,29,02,47,4.80
2016,02,29,02,48,4.80
2016,02,29,02,49,4.80
2016,02,29,02,50,4.80
2016,02,29,02,51,4.80
2016,02,29,02,52,4.80
2016,02,29,02,53,4.80
2016,02,29,02,54,4.80
2016,02,29,02,55,4.80
2016,02,29,02,56,6.40
2016,02,29,02,57,4.80
2016,02,29,02,58,8.10
2016,02,29,02,59,9.60
2016,02,29,03,00,9.60
2016,02,29,03,01,11.30
2016,02,29,03,02,6.40
2016,02,29,03,03,8.10
2016,02,29,03,04,6.40
2016,02,29,03,05,4.80
2016,02,29,03,06,3.20
2016,02,29,03,07,4.80
2016,02,29,03,08,4.80
2016,02,29,03,09,4.80
2016,02,29,03,10,4.80
2016,02,29,03,11,4.80
2016,02,29,03,12,3.20
2016,02,29,03,13,3.20
2016,02,29,03,14,1.60
2016,02,29,03,16,1.60
2016,02,29,03,17,1.60
2016,02,29,03,18,1.60
2016,02,29,03,19,1.60
2016,02,29,03,21,1.60
2016,02,29,03,22,3.20
2016,02,29,03,23,1.60
2016,02,29,03,24,3.20
2016,02,29,03,25,4.80
2016,02,29,03,26,3.20
2016,02,29,03,27,4.80
2016,02,29,03,28,6.40
2016,02,29,03,29,6.40
2016,02,29,03,30,4.80
2016,02,29,03,31,3.20
2016,02,29,03,32,1.60
2016,02,29,03,33,1.60
2016,02,29,03,34,1.60
2016,02,29,03,35,3.20
2016,02,29,03,36,3.20
2016,02,29,03,37,1.60
2016,02,29,03,38,1.60
2016,02,29,03,39,3.20
2016,02,29,03,40,1.60
2016,02,29,03,41,1.60
2016,02,29,03,42,3.20
2016,02,29,03,43,3.20
2016,02,29,03,44,3.20
2016,02,29,03,45,3.20
2016,02,29,03,46,3.20
2016,02,29,03,47,3.20
2016,02,29,03,51,4.80
2016,02,29,03,52,6.40
2016,02,29,03,53,4.80
2016,02,29,03,54,4.80
2016,02,29,03,55,3.20
2016,02,29,03,56,3.20
2016,02,29,03,57,4.80
2016,02,29,03,58,4.80
2016,02,29,03,59,4.80
2016,02,29,04,00,4.80
2016,02,29,04,03,3.20
2016,02,29,04,04,4.80
2016,02,29,04,05,4.80
2016,02,29,04,07,1.60
2016,02,29,04,08,1.60
2016,02,29,04,10,1.60
2016,02,29,04,11,3.20
2016,02,29,04,12,3.20
2016,02,29,04,13,4.80
2016,02,29,04,14,9.60
2016,02,29,04,15,8.10
2016,02,29,04,16,6.40
2016,02,29,04,17,8.10
2016,02,29,04,18,11.30
2016,02,29,04,19,14.50
2016,02,29,04,20,11.30
2016,02,29,04,21,11.30
2016,02,29,04,22,8.10
2016,02,29,04,23,8.10
2016,02,29,04,24,6.40
2016,02,29,04,25,8.10
2016,02,29,04,26,4.80
2016,02,29,04,27,4.80
2016,02,29,04,28,3.20
2016,02,29,04,29,3.20
2016,02,29,04,32,1.60
2016,02,29,04,33,3.20
2016,02,29,04,34,8.10
2016,02,29,04,35,8.10
2016,02,29,04,36,8.10
2016,02,29,04,37,8.10
2016,02,29,04,38,3.20
2016,02,29,04,39,4.80
2016,02,29,04,40,4.80
2016,02,29,04,41,4.80
2016,02,29,04,42,4.80
2016,02,29,04,43,4.80
2016,02,29,04,44,6.40
2016,02,29,04,45,6.40
2016,02,29,04,46,4.80
2016,02,29,04,47,6.40
2016,02,29,04,48,4.80
2016,02,29,04,49,6.40
2016,02,29,04,50,4.80
2016,02,29,04,51,3.20
2016,02,29,04,52,4.80
2016,02,29,04,53,4.80
2016,02,29,04,54,4.80
2016,02,29,04,56,3.20
2016,02,29,04,57,4.80
2016,02,29,04,59,6.40
2016,02,29,05,00,6.40
2016,02,29,05,01,3.20
2016,02,29,05,02,3.20
2016,02,29,05,03,1.60
2016,02,29,05,05,3.20
2016,02,29,05,06,3.20
2016,02,29,05,07,4.80
2016,02,29,05,08,3.20
2016,02,29,05,09,3.20
2016,02,29,05,10,3.20
2016,02,29,05,11,3.20
2016,02,29,05,12,3.20
2016,02,29,05,13,3.20
2016,02,29,05,14,3.20
2016,02,29,05,15,3.20
2016,02,29,05,20,1.60
2016,02,29,05,21,3.20
2016,02,29,05,22,3.20
2016,02,29,05,23,3.20
2016,02,29,05,24,3.20
2016,02,29,05,25,3.20
2016,02,29,05,26,3.20
2016,02,29,05,27,4.80
2016,02,29,05,28,3.20
2016,02,29,05,31,3.20
2016,02,29,05,32,3.20
2016,02,29,05,33,3.20
2016,02,29,05,34,4.80
2016,02,29,05,35,4.80
2016,02,29,05,36,4.80
2016,02,29,05,37,4.80
2016,02,29,05,38,3.20
2016,02,29,05,39,4.80
2016,02,29,05,40,3.20
2016,02,29,05,41,4.80
2016,02,29,05,42,4.80
2016,02,29,05,43,3.20
2016,02,29,05,44,6.40
2016,02,29,05,45,4.80
2016,02,29,05,46,4.80
2016,02,29,05,47,6.40
2016,02,29,05,48,4.80
2016,02,29,05,51,1.60
2016,02,29,05,54,4.80
2016,02,29,05,55,6.40
2016,02,29,05,56,6.40
2016,02,29,05,57,6.40
2016,02,29,05,58,6.40
2016,02,29,05,59,4.80
2016,02,29,06,00,1.60
2016,02,29,06,01,3.20
2016,02,29,06,02,4.80
2016,02,29,06,03,1.60
2016,02,29,06,12,3.20
2016,02,29,06,13,3.20
2016,02,29,06,14,4.80
2016,02,29,06,15,3.20
2016,02,29,06,16,3.20
2016,02,29,06,17,4.80
2016,02,29,06,18,6.40
2016,02,29,06,19,6.40
2016,02,29,06,20,4.80
2016,02,29,06,21,4.80
2016,02,29,06,22,4.80
2016,02,29,06,23,4.80
2016,02,29,06,24,6.40
2016,02,29,06,25,4.80
2016,02,29,06,26,3.20
2016,02,29,06,27,3.20
2016,02,29,06,28,3.20
2016,02,29,06,29,3.20
2016,02,29,06,30,3.20
2016,02,29,06,31,3.20
2016,02,29,06,32,1.60
2016,02,29,06,37,3.20
2016,02,29,06,38,3.20
2016,02,29,06,39,1.60
2016,02,29,06,48,1.60
2016,02,29,06,49,3.20
2016,02,29,06,50,3.20
2016,02,29,06,51,1.60
2016,02,29,06,52,1.60
2016,02,29,07,02,1.60
2016,02,29,07,03,4.80
2016,02,29,07,04,3.20
2016,02,29,07,05,3.20
2016,02,29,07,10,3.20
2016,02,29,07,11,3.20
2016,02,29,07,12,4.80
2016,02,29,07,13,6.40
2016,02,29,07,14,6.40
2016,02,29,07,15,4.80
2016,02,29,07,16,3.20
2016,02,29,07,17,3.20
2016,02,29,07,20,3.20
2016,02,29,07,21,3.20
2016,02,29,07,22,3.20
2016,02,29,07,23,3.20
2016,02,29,07,24,1.60
2016,02,29,07,25,1.60
2016,02,29,07,26,1.60
2016,02,29,07,27,1.60
2016,02,29,07,28,4.80
2016,02,29,07,29,3.20
2016,02,29,07,30,1.60
2016,02,29,07,32,1.60
2016,02,29,07,33,1.60
2016,02,29,07,40,3.20
2016,02,29,07,41,4.80
2016,02,29,07,42,6.40
2016,02,29,07,43,3.20
2016,02,29,07,44,1.60
2016,02,29,07,45,1.60
2016,02,29,07,46,1.60
2016,02,29,07,47,1.60
2016,02,29,07,48,1.60
2016,02,29,07,50,1.60
2016,02,29,07,51,1.60
2016,02,29,07,54,1.60
2016,02,29,07,55,3.20
2016,02,29,07,56,3.20
2016,02,29,07,57,1.60
2016,02,29,07,58,3.20
2016,02,29,07,59,3.20
2016,02,29,08,00,1.60
2016,02,29,08,01,3.20
2016,02,29,08,02,3.20
2016,02,29,08,03,1.60
2016,02,29,08,09,3.20
2016,02,29,08,10,3.20
2016,02,29,08,11,1.60
2016,02,29,08,12,3.20
2016,02,29,08,13,3.20
2016,02,29,08,14,1.60
2016,02,29,08,26,1.60
2016,02,29,08,27,1.60
2016,02,29,08,28,1.60
2016,02,29,08,36,1.60
2016,02,29,08,37,1.60
2016,02,29,08,43,3.20
2016,02,29,08,44,3.20
2016,02,29,08,45,3.20
2016,02,29,08,46,3.20
2016,02,29,08,47,4.80
2016,02,29,08,48,3.20
2016,02,29,08,49,3.20
2016,02,29,08,50,4.80
2016,02,29,08,51,3.20
2016,02,29,08,53,3.20
2016,02,29,08,54,1.60
2016,02,29,08,55,3.20
2016,02,29,08,56,3.20
2016,02,29,08,57,3.20
2016,02,29,08,59,3.20
2016,02,29,09,00,3.20
2016,02,29,09,01,3.20
2016,02,29,09,02,3.20
2016,02,29,09,03,1.60
2016,02,29,09,05,1.60
2016,02,29,09,06,3.20
2016,02,29,09,07,1.60
2016,02,29,09,08,3.20
2016,02,29,09,09,4.80
2016,02,29,09,10,4.80
2016,02,29,09,11,3.20
2016,02,29,09,12,3.20
2016,02,29,09,13,3.20
2016,02,29,09,14,1.60
2016,02,29,09,15,1.60
2016,02,29,09,16,1.60
2016,02,29,09,17,1.60
2016,02,29,09,18,3.20
2016,02,29,09,19,4.80
2016,02,29,09,20,3.20
2016,02,29,09,21,3.20
2016,02,29,09,22,3.20
2016,02,29,09,23,3.20
2016,02,29,09,24,3.20
2016,02,29,09,25,4.80
2016,02,29,09,26,4.80
2016,02,29,09,27,3.20
2016,02,29,09,28,1.60
2016,02,29,09,29,4.80
2016,02,29,09,30,4.80
2016,02,29,09,31,4.80
2016,02,29,09,32,4.80
2016,02,29,09,33,4.80
2016,02,29,09,34,3.20
2016,02,29,09,35,4.80
2016,02,29,09,36,4.80
2016,02,29,09,37,3.20
2016,02,29,09,38,3.20
2016,02,29,09,39,4.80
2016,02,29,09,40,4.80
2016,02,29,09,41,4.80
2016,02,29,09,42,4.80
2016,02,29,09,43,3.20
2016,02,29,09,44,4.80
2016,02,29,09,45,4.80
2016,02,29,09,46,4.80
2016,02,29,09,47,4.80
2016,02,29,09,48,6.40
2016,02,29,09,49,6.40
2016,02,29,09,50,6.40
2016,02,29,09,51,6.40
2016,02,29,09,52,4.80
2016,02,29,09,53,3.20
2016,02,29,09,54,4.80
2016,02,29,09,55,4.80
2016,02,29,09,56,6.40
2016,02,29,09,57,4.80
2016,02,29,09,58,4.80
2016,02,29,09,59,3.20
2016,02,29,10,00,4.80
2016,02,29,10,01,4.80
2016,02,29,10,02,4.80
2016,02,29,10,03,3.20
2016,02,29,10,04,3.20
2016,02,29,10,05,6.40
2016,02,29,10,06,4.80
2016,02,29,10,07,4.80
2016,02,29,10,08,4.80
2016,02,29,10,09,4.80
2016,02,29,10,10,4.80
2016,02,29,10,11,3.20
2016,02,29,10,12,3.20
2016,02,29,10,13,3.20
2016,02,29,10,14,4.80
2016,02,29,10,15,4.80
2016,02,29,10,16,3.20
2016,02,29,10,17,4.80
2016,02,29,10,18,4.80
2016,02,29,10,19,4.80
2016,02,29,10,20,4.80
2016,02,29,10,21,4.80
2016,02,29,10,22,4.80
2016,02,29,10,23,4.80
2016,02,29,10,24,6.40
2016,02,29,10,25,4.80
2016,02,29,10,26,4.80
2016,02,29,10,27,4.80
2016,02,29,10,28,4.80
2016,02,29,10,29,3.20
2016,02,29,10,30,6.40
2016,02,29,10,31,3.20
2016,02,29,10,32,3.20
2016,02,29,10,33,1.60
2016,02,29,10,34,1.60
2016,02,29,10,35,3.20
2016,02,29,10,36,1.60
2016,02,29,10,37,1.60
2016,02,29,10,38,1.60
2016,02,29,10,39,3.20
2016,02,29,10,40,3.20
2016,02,29,10,41,1.60
2016,02,29,10,42,3.20
2016,02,29,10,43,1.60
2016,02,29,10,44,1.60
2016,02,29,10,45,1.60
2016,02,29,10,46,3.20
2016,02,29,10,47,4.80
2016,02,29,10,48,4.80
2016,02,29,10,49,3.20
2016,02,29,10,50,3.20
2016,02,29,10,51,4.80
2016,02,29,10,52,6.40
2016,02,29,10,53,4.80
2016,02,29,10,54,6.40
2016,02,29,10,55,4.80
2016,02,29,10,56,4.80
2016,02,29,10,57,3.20
2016,02,29,10,58,4.80
2016,02,29,10,59,3.20
2016,02,29,11,00,4.80
2016,02,29,11,01,4.80
2016,02,29,11,02,3.20
2016,02,29,11,03,4.80
2016,02,29,11,04,4.80
2016,02,29,11,05,3.20
2016,02,29,11,06,4.80
2016,02,29,11,07,4.80
2016,02,29,11,08,3.20
2016,02,29,11,09,3.20
2016,02,29,11,10,6.40
2016,02,29,11,11,6.40
2016,02,29,11,12,4.80
2016,02,29,11,13,4.80
2016,02,29,11,14,6.40
2016,02,29,11,15,8.10
2016,02,29,11,16,3.20
2016,02,29,11,17,1.60
2016,02,29,11,18,3.20
2016,02,29,11,19,3.20
2016,02,29,11,20,6.40
2016,02,29,11,21,4.80
2016,02,29,11,22,6.40
2016,02,29,11,23,3.20
2016,02,29,11,24,3.20
2016,02,29,11,25,4.80
2016,02,29,11,26,4.80
2016,02,29,11,27,4.80
2016,02,29,11,28,3.20
2016,02,29,11,29,3.20
2016,02,29,11,30,4.80
2016,02,29,11,31,3.20
2016,02,29,11,32,6.40
2016,02,29,11,33,4.80
2016,02,29,11,34,9.60
2016,02,29,11,35,14.50
2016,02,29,11,36,11.30
2016,02,29,11,37,9.60
2016,02,29,11,38,14.50
2016,02,29,11,39,9.60
2016,02,29,11,40,8.10
2016,02,29,11,41,6.40
2016,02,29,11,42,11.30
2016,02,29,11,43,12.90
2016,02,29,11,44,6.40
2016,02,29,11,45,14.50
2016,02,29,11,46,9.60
2016,02,29,11,47,11.30
2016,02,29,11,48,8.10
2016,02,29,11,49,16.10
2016,02,29,11,50,16.10
2016,02,29,11,51,9.60
2016,02,29,11,52,14.50
2016,02,29,11,53,11.30
2016,02,29,11,54,16.10
2016,02,29,11,55,8.10
2016,02,29,11,56,9.60
2016,02,29,11,57,11.30
2016,02,29,11,58,9.60
2016,02,29,11,59,11.30
2016,02,29,12,00,12.90
2016,02,29,12,01,17.70
2016,02,29,12,02,19.30
2016,02,29,12,03,17.70
2016,02,29,12,04,14.50
2016,02,29,12,05,17.70
2016,02,29,12,06,11.30
2016,02,29,12,07,14.50
2016,02,29,12,08,16.10
2016,02,29,12,09,17.70
2016,02,29,12,10,9.60
2016,02,29,12,11,16.10
2016,02,29,12,12,24.20
2016,02,29,12,13,9.60
2016,02,29,12,14,17.70
2016,02,29,12,15,16.10
2016,02,29,12,16,14.50
2016,02,29,12,17,9.60
2016,02,29,12,18,9.60
2016,02,29,12,19,9.60
2016,02,29,12,20,9.60
2016,02,29,12,21,8.10
2016,02,29,12,22,14.50
2016,02,29,12,23,16.10
2016,02,29,12,24,11.30
2016,02,29,12,25,19.30
2016,02,29,12,26,20.90
2016,02,29,12,27,9.60
2016,02,29,12,28,9.60
2016,02,29,12,29,17.70
2016,02,29,12,30,11.30
2016,02,29,12,31,8.10
2016,02,29,12,32,14.50
2016,02,29,12,33,11.30
2016,02,29,12,34,16.10
2016,02,29,12,35,12.90
2016,02,29,12,36,14.50
2016,02,29,12,37,14.50
2016,02,29,12,38,11.30
2016,02,29,12,39,12.90
2016,02,29,12,40,11.30
2016,02,29,12,41,11.30
2016,02,29,12,42,17.70
2016,02,29,12,43,14.50
2016,02,29,12,44,12.90
2016,02,29,12,45,9.60
2016,02,29,12,46,14.50
2016,02,29,12,47,9.60
2016,02,29,12,48,19.30
2016,02,29,12,49,19.30
2016,02,29,12,50,19.30
2016,02,29,12,51,17.70
2016,02,29,12,52,8.10
2016,02,29,12,53,12.90
2016,02,29,12,54,17.70
2016,02,29,12,55,9.60
2016,02,29,12,56,14.50
2016,02,29,12,57,20.90
2016,02,29,12,58,9.60
2016,02,29,12,59,16.10
2016,02,29,13,00,17.70
2016,02,29,13,01,17.70
2016,02,29,13,02,16.10
2016,02,29,13,03,16.10
2016,02,29,13,04,11.30
2016,02,29,13,05,24.20
2016,02,29,13,06,9.60
2016,02,29,13,07,11.30
2016,02,29,13,08,20.90
2016,02,29,13,09,19.30
2016,02,29,13,10,11.30
2016,02,29,13,11,11.30
2016,02,29,13,12,11.30
2016,02,29,13,13,8.10
2016,02,29,13,14,14.50
2016,02,29,13,15,17.70
2016,02,29,13,16,12.90
2016,02,29,13,17,14.50
2016,02,29,13,18,8.10
2016,02,29,13,19,19.30
2016,02,29,13,20,16.10
2016,02,29,13,21,9.60
2016,02,29,13,22,12.90
2016,02,29,13,23,19.30
2016,02,29,13,24,17.70
2016,02,29,13,25,9.60
2016,02,29,13,26,17.70
2016,02,29,13,27,14.50
2016,02,29,13,28,11.30
2016,02,29,13,29,12.90
2016,02,29,13,30,9.60
2016,02,29,13,31,9.60
2016,02,29,13,32,9.60
2016,02,29,13,33,11.30
2016,02,29,13,34,11.30
2016,02,29,13,35,9.60
2016,02,29,13,36,17.70
2016,02,29,13,37,16.10
2016,02,29,13,38,14.50
2016,02,29,13,39,19.30
2016,02,29,13,40,16.10
2016,02,29,13,41,22.50
2016,02,29,13,42,12.90
2016,02,29,13,43,11.30
2016,02,29,13,44,16.10
2016,02,29,13,45,14.50
2016,02,29,13,46,19.30
2016,02,29,13,47,17.70
2016,02,29,13,48,16.10
2016,02,29,13,49,16.10
2016,02,29,13,50,17.70
2016,02,29,13,51,16.10
2016,02,29,13,52,14.50
2016,02,29,13,53,19.30
2016,02,29,13,54,8.10
2016,02,29,13,55,11.30
2016,02,29,13,56,9.60
2016,02,29,13,57,8.10
2016,02,29,13,58,6.40
2016,02,29,13,59,11.30
2016,02,29,14,00,16.10
2016,02,29,14,01,12.90
2016,02,29,14,02,11.30
2016,02,29,14,03,11.30
2016,02,29,14,04,20.90
2016,02,29,14,05,20.90
2016,02,29,14,06,14.50
2016,02,29,14,07,11.30
2016,02,29,14,08,8.10
2016,02,29,14,09,16.10
2016,02,29,14,10,11.30
2016,02,29,14,11,12.90
2016,02,29,14,12,12.90
2016,02,29,14,13,11.30
2016,02,29,14,14,14.50
2016,02,29,14,15,9.60
2016,02,29,14,16,19.30
2016,02,29,14,17,8.10
2016,02,29,14,18,16.10
2016,02,29,14,19,14.50
2016,02,29,14,20,14.50
2016,02,29,14,21,9.60
2016,02,29,14,22,14.50
2016,02,29,14,23,16.10
2016,02,29,14,24,11.30
2016,02,29,14,25,11.30
2016,02,29,14,26,17.70
2016,02,29,14,27,14.50
2016,02,29,14,28,14.50
2016,02,29,14,29,11.30
2016,02,29,14,30,17.70
2016,02,29,14,31,12.90
2016,02,29,14,32,12.90
2016,02,29,14,33,11.30
2016,02,29,14,34,8.10
2016,02,29,14,35,9.60
2016,02,29,14,36,8.10
2016,02,29,14,37,11.30
2016,02,29,14,38,8.10
2016,02,29,14,39,9.60
2016,02,29,14,40,8.10
2016,02,29,14,41,8.10
2016,02,29,14,42,6.40
2016,02,29,14,43,9.60
2016,02,29,14,44,9.60
2016,02,29,14,45,11.30
2016,02,29,14,46,12.90
2016,02,29,14,47,9.60
2016,02,29,14,48,9.60
2016,02,29,14,49,9.60
2016,02,29,14,50,8.10
2016,02,29,14,51,11.30
2016,02,29,14,52,9.60
2016,02,29,14,53,9.60
2016,02,29,14,54,4.80
2016,02,29,14,55,16.10
2016,02,29,14,56,11.30
2016,02,29,14,57,9.60
2016,02,29,14,58,9.60
2016,02,29,14,59,8.10
2016,02,29,15,00,12.90
2016,02,29,15,01,11.30
2016,02,29,15,02,6.40
2016,02,29,15,03,11.30
2016,02,29,15,04,9.60
2016,02,29,15,05,4.80
2016,02,29,15,06,6.40
2016,02,29,15,07,9.60
2016,02,29,15,08,16.10
2016,02,29,15,09,9.60
2016,02,29,15,10,11.30
2016,02,29,15,11,14.50
2016,02,29,15,12,9.60
2016,02,29,15,13,14.50
2016,02,29,15,14,11.30
2016,02,29,15,15,8.10
2016,02,29,15,16,9.60
2016,02,29,15,17,9.60
2016,02,29,15,18,8.10
2016,02,29,15,19,12.90
2016,02,29,15,20,19.30
2016,02,29,15,21,14.50
2016,02,29,15,22,9.60
2016,02,29,15,23,9.60
2016,02,29,15,24,11.30
2016,02,29,15,25,14.50
2016,02,29,15,26,9.60
2016,02,29,15,27,8.10
2016,02,29,15,28,16.10
2016,02,29,15,29,16.10
2016,02,29,15,30,20.90
2016,02,29,15,31,19.30
2016,02,29,15,32,17.70
2016,02,29,15,33,14.50
2016,02,29,15,34,11.30
2016,02,29,15,35,14.50
2016,02,29,15,36,12.90
2016,02,29,15,37,22.50
2016,02,29,15,38,17.70
2016,02,29,15,39,20.90
2016,02,29,15,40,11.30
2016,02,29,15,41,17.70
2016,02,29,15,42,19.30
2016,02,29,15,43,11.30
2016,02,29,15,44,8.10
2016,02,29,15,45,11.30
2016,02,29,15,46,6.40
2016,02,29,15,47,9.60
2016,02,29,15,48,9.60
2016,02,29,15,49,8.10
2016,02,29,15,50,11.30
2016,02,29,15,51,16.10
2016,02,29,15,52,17.70
2016,02,29,15,53,8.10
2016,02,29,15,54,14.50
2016,02,29,15,55,8.10
2016,02,29,15,56,9.60
2016,02,29,15,57,16.10
2016,02,29,15,58,16.10
2016,02,29,15,59,16.10
2016,02,29,16,00,14.50
2016,02,29,16,01,11.30
2016,02,29,16,02,14.50
2016,02,29,16,03,14.50
2016,02,29,16,04,11.30
2016,02,29,16,05,14.50
2016,02,29,16,06,16.10
2016,02,29,16,07,14.50
2016,02,29,16,08,16.10
2016,02,29,16,09,9.60
2016,02,29,16,10,14.50
2016,02,29,16,11,17.70
2016,02,29,16,12,12.90
2016,02,29,16,13,9.60
2016,02,29,16,14,8.10
2016,02,29,16,15,11.30
2016,02,29,16,16,9.60
2016,02,29,16,17,11.30
2016,02,29,16,18,11.30
2016,02,29,16,19,19.30
2016,02,29,16,20,17.70
2016,02,29,16,21,16.10
2016,02,29,16,22,9.60
2016,02,29,16,23,17.70
2016,02,29,16,24,19.30
2016,02,29,16,25,16.10
2016,02,29,16,26,9.60
2016,02,29,16,27,14.50
2016,02,29,16,28,16.10
2016,02,29,16,29,12.90
2016,02,29,16,30,11.30
2016,02,29,16,31,12.90
2016,02,29,16,32,9.60
2016,02,29,16,33,16.10
2016,02,29,16,34,9.60
2016,02,29,16,35,14.50
2016,02,29,16,36,8.10
2016,02,29,16,37,9.60
2016,02,29,16,38,9.60
2016,02,29,16,39,19.30
2016,02,29,16,40,19.30
2016,02,29,16,41,12.90
2016,02,29,16,42,16.10
2016,02,29,16,43,14.50
2016,02,29,16,44,11.30
2016,02,29,16,45,12.90
2016,02,29,16,46,19.30
2016,02,29,16,47,16.10
2016,02,29,16,48,11.30
2016,02,29,16,49,14.50
2016,02,29,16,50,16.10
2016,02,29,16,51,22.50
2016,02,29,16,52,19.30
2016,02,29,16,53,11.30
2016,02,29,16,54,14.50
2016,02,29,16,55,9.60
2016,02,29,16,56,14.50
2016,02,29,16,57,12.90
2016,02,29,16,58,20.90
2016,02,29,16,59,16.10
2016,02,29,17,00,14.50
2016,02,29,17,01,9.60
2016,02,29,17,02,11.30
2016,02,29,17,03,9.60
2016,02,29,17,04,8.10
2016,02,29,17,05,11.30
2016,02,29,17,06,8.10
2016,02,29,17,07,9.60
2016,02,29,17,08,9.60
2016,02,29,17,09,8.10
2016,02,29,17,10,4.80
2016,02,29,17,11,6.40
2016,02,29,17,12,6.40
2016,02,29,17,13,6.40
2016,02,29,17,14,9.60
2016,02,29,17,15,6.40
2016,02,29,17,16,9.60
2016,02,29,17,17,9.60
2016,02,29,17,18,8.10
2016,02,29,17,19,11.30
2016,02,29,17,20,9.60
2016,02,29,17,21,8.10
2016,02,29,17,22,9.60
2016,02,29,17,23,9.60
2016,02,29,17,24,9.60
2016,02,29,17,25,8.10
2016,02,29,17,26,9.60
2016,02,29,17,27,6.40
2016,02,29,17,28,6.40
2016,02,29,17,29,12.90
2016,02,29,17,30,11.30
2016,02,29,17,31,12.90
2016,02,29,17,32,14.50
2016,02,29,17,33,14.50
2016,02,29,17,34,11.30
2016,02,29,17,35,12.90
2016,02,29,17,36,11.30
2016,02,29,17,37,6.40
2016,02,29,17,38,6.40
2016,02,29,17,39,9.60
2016,02,29,17,40,6.40
2016,02,29,17,41,11.30
2016,02,29,17,42,6.40
2016,02,29,17,43,14.50
2016,02,29,17,44,8.10
2016,02,29,17,45,8.10
2016,02,29,17,46,6.40
2016,02,29,17,47,8.10
2016,02,29,17,48,6.40
2016,02,29,17,49,6.40
2016,02,29,17,50,9.60
2016,02,29,17,51,16.10
2016,02,29,17,52,14.50
2016,02,29,17,53,8.10
2016,02,29,17,54,9.60
2016,02,29,17,55,11.30
2016,02,29,17,56,9.60
2016,02,29,17,57,9.60
2016,02,29,17,58,11.30
2016,02,29,17,59,11.30
2016,02,29,18,00,11.30
2016,02,29,18,01,9.60
2016,02,29,18,02,8.10
2016,02,29,18,03,8.10
2016,02,29,18,04,8.10
2016,02,29,18,05,9.60
2016,02,29,18,06,8.10
2016,02,29,18,07,6.40
2016,02,29,18,08,8.10
2016,02,29,18,09,8.10
2016,02,29,18,10,6.40
2016,02,29,18,11,17.70
2016,02,29,18,12,16.10
2016,02,29,18,13,9.60
2016,02,29,18,14,9.60
2016,02,29,18,15,6.40
2016,02,29,18,16,4.80
2016,02,29,18,17,6.40
2016,02,29,18,18,8.10
2016,02,29,18,19,6.40
2016,02,29,18,20,9.60
2016,02,29,18,21,9.60
2016,02,29,18,22,4.80
2016,02,29,18,23,6.40
2016,02,29,18,24,8.10
2016,02,29,18,25,11.30
2016,02,29,18,26,11.30
2016,02,29,18,27,6.40
2016,02,29,18,28,4.80
2016,02,29,18,29,6.40
2016,02,29,18,30,9.60
2016,02,29,18,31,8.10
2016,02,29,18,32,6.40
2016,02,29,18,33,6.40
2016,02,29,18,34,4.80
2016,02,29,18,35,6.40
2016,02,29,18,36,8.10
2016,02,29,18,37,6.40
2016,02,29,18,38,8.10
2016,02,29,18,39,8.10
2016,02,29,18,40,4.80
2016,02,29,18,41,6.40
2016,02,29,18,42,9.60
2016,02,29,18,43,8.10
2016,02,29,18,44,6.40
2016,02,29,18,45,4.80
2016,02,29,18,46,9.60
2016,02,29,18,47,11.30
2016,02,29,18,48,6.40
2016,02,29,18,49,6.40
2016,02,29,18,50,6.40
2016,02,29,18,51,6.40
2016,02,29,18,52,4.80
2016,02,29,18,53,4.80
2016,02,29,18,54,4.80
2016,02,29,18,55,4.80
2016,02,29,18,56,4.80
2016,02,29,18,57,4.80
2016,02,29,18,58,4.80
2016,02,29,18,59,4.80
2016,02,29,19,00,6.40
2016,02,29,19,01,4.80
2016,02,29,19,02,4.80
2016,02,29,19,03,4.80
2016,02,29,19,04,4.80
2016,02,29,19,05,8.10
2016,02,29,19,06,4.80
2016,02,29,19,07,6.40
2016,02,29,19,08,6.40
2016,02,29,19,09,8.10
2016,02,29,19,10,4.80
2016,02,29,19,11,3.20
2016,02,29,19,12,4.80
2016,02,29,19,13,4.80
2016,02,29,19,14,4.80
2016,02,29,19,15,4.80
2016,02,29,19,16,3.20
2016,02,29,19,17,4.80
2016,02,29,19,18,4.80
2016,02,29,19,19,4.80
2016,02,29,19,20,4.80
2016,02,29,19,21,3.20
2016,02,29,19,22,3.20
2016,02,29,19,23,6.40
2016,02,29,19,24,6.40
2016,02,29,19,25,8.10
2016,02,29,19,26,4.80
2016,02,29,19,27,11.30
2016,02,29,19,28,8.10
2016,02,29,19,29,9.60
2016,02,29,19,30,6.40
2016,02,29,19,31,6.40